{"data":{"norad_id":67045,"intl_designator":"2025-294R","name":"STARLINK-35891","alt_names":[],"object_type":"PAYLOAD","status":"ACTIVE","operator":null,"country":"US","launch_date":"2025-12-11","launch_site_code":"AFETR","launch_vehicle":null,"mission":null,"orbit_class":"UNKNOWN","rcs_meters":null,"size_class":null,"mass_kg":null,"dimensions":null,"purposes":["comms"],"wikipedia_slug":null,"has_3d_model":false,"image_url":null,"decayed_at":null,"tle_current":{"epoch":"2026-05-24T18:50:46.023360Z","epoch_age_seconds":83781,"freshness":"FRESH","line1":"1 67045U 25294R   26144.78525490  .00019196  00000+0  70502-3 0  9993","line2":"2 67045  43.0016 328.6183 0001415 268.7339  91.3351 15.27591329 26439","mean_motion":15.27591329,"eccentricity":0.0001415,"inclination_deg":43.0016,"raan_deg":328.6183,"arg_perigee_deg":268.7339,"mean_anomaly_deg":91.3351,"bstar":0.00070502,"rev_number":2643,"period_min":94.266049607827,"perigee_km":482.04432011522,"apogee_km":483.98602618022,"semimajor_km":6861.1521731477,"source":"CELESTRAK","updated_at":"2026-05-25T13:38:21.439435Z"}}}